sat.trackr.live / text

‹ back to catalog

STARLINK-37065

NORAD 68083 · 2026-042Q

PAYLOAD ACTIVE UNKNOWN

§ Identity

Operator
Country
US
Launch date
2026-03-04
Launch site
AFETR
Launch vehicle
Mass (kg)
RCS (m²)

Purposes: comms

External: N2YO · Heavens-Above · Gunter

§ Orbital elements

Epoch: 2026-05-25T03:02:21.753888Z

Period
93.85 min
Inclination
53.1583°
Eccentricity
0.0001350
Mean motion
15.34406984 rev/d
Perigee alt
461.8 km
Apogee alt
463.6 km
Semi-major
6,840.8 km
B*
5.3246e-4
RAAN
183.2913°
Arg perigee
96.8682°
Mean anomaly
263.2474°
Rev number
1,401

§ Raw data

STARLINK-370651 68083U 26042Q   26145.12664067  .00017660  00000+0  53246-3 0  99912 68083  53.1583 183.2913 0001350  96.8682 263.2474 15.34406984 14015

JSON: /api/v1/satellites/68083 · /tle

For live sub-satellite position, see the globe view (requires WebGL).

§ Visibility from observer

Set your observer location to see the next 7 days of passes ≥ 10°. The values pass through the URL so the page stays shareable.

No JS? Fill the form by hand. The geolocation button needs JavaScript.